• în Republica Moldova
  • Lista ţărilor
  • Pe 7 zile
  • Temperatura apei
  • Hartă satelitară
  • Meteo pe hartă
  • Widget-uri
  • user-avatar
    Intrare

    Meteo pe oră la Yulara

    Astăzi, 21 August, Luni

    Timp Temperatura Precipitaţii Vânt Presiune Umiditate
    00:00 +18°C° 0 mm 7 m/s 718 mmHg 28%
    01:00 +17°C° 0 mm 7 m/s 718 mmHg 29%
    02:00 +16°C° 0 mm 6 m/s 718 mmHg 30%
    03:00 +15°C° 0 mm 5 m/s 718 mmHg 30%
    04:00 +14°C° 0 mm 4 m/s 718 mmHg 35%
    05:00 +13°C° 0 mm 4 m/s 719 mmHg 39%
    06:00 +13°C° 0 mm 4 m/s 719 mmHg 44%
    07:00 +13°C° 0 mm 5 m/s 720 mmHg 45%
    08:00 +14°C° 0 mm 5 m/s 720 mmHg 45%
    09:00 +15°C° 0 mm 6 m/s 720 mmHg 46%
    10:00 +17°C° 0 mm 5 m/s 720 mmHg 40%
    11:00 +20°C° 0 mm 5 m/s 720 mmHg 34%
    12:00 +21°C° 0 mm 4 m/s 720 mmHg 28%
    13:00 +22°C° 0 mm 4 m/s 720 mmHg 26%
    14:00 +24°C° 0 mm 3 m/s 720 mmHg 23%
    15:00 +25°C° 0 mm 3 m/s 719 mmHg 20%
    16:00 +24°C° 0 mm 3 m/s 719 mmHg 22%
    17:00 +22°C° 0 mm 3 m/s 719 mmHg 23%
    18:00 +21°C° 0 mm 3 m/s 719 mmHg 24%
    19:00 +20°C° 0 mm 3 m/s 720 mmHg 27%
    20:00 +19°C° 0 mm 4 m/s 720 mmHg 30%
    21:00 +18°C° 0 mm 4 m/s 720 mmHg 33%
    22:00 +17°C° 0 mm 5 m/s 720 mmHg 35%
    23:00 +16°C° 0 mm 5 m/s 720 mmHg 38%

    Mâine, 22 August, Marţi

    Timp Temperatura Precipitaţii Vânt Presiune Umiditate
    00:00 +15°C° 0 mm 5 m/s 720 mmHg 40%
    01:00 +15°C° 0 mm 5 m/s 720 mmHg 42%
    02:00 +14°C° 0 mm 5 m/s 720 mmHg 45%
    03:00 +13°C° 0 mm 4 m/s 720 mmHg 47%
    04:00 +13°C° 0 mm 4 m/s 720 mmHg 49%
    05:00 +12°C° 0 mm 4 m/s 720 mmHg 50%
    06:00 +12°C° 0 mm 4 m/s 721 mmHg 52%
    07:00 +13°C° 0 mm 5 m/s 721 mmHg 49%
    08:00 +15°C° 0 mm 6 m/s 721 mmHg 46%
    09:00 +16°C° 0 mm 7 m/s 722 mmHg 43%
    10:00 +18°C° 0 mm 7 m/s 721 mmHg 38%
    11:00 +21°C° 0 mm 6 m/s 721 mmHg 33%
    12:00 +24°C° 0 mm 6 m/s 721 mmHg 28%
    13:00 +25°C° 0 mm 4 m/s 721 mmHg 27%
    14:00 +26°C° 0 mm 3 m/s 720 mmHg 25%
    15:00 +27°C° 0 mm 2 m/s 720 mmHg 24%
    16:00 +26°C° 0 mm 2 m/s 720 mmHg 25%
    17:00 +25°C° 0 mm 2 m/s 720 mmHg 27%
    18:00 +24°C° 0 mm 2 m/s 720 mmHg 29%
    19:00 +22°C° 0 mm 3 m/s 720 mmHg 30%
    20:00 +22°C° 0 mm 3 m/s 721 mmHg 32%
    21:00 +21°C° 0 mm 3 m/s 721 mmHg 34%
    22:00 +20°C° 0 mm 3 m/s 721 mmHg 35%
    23:00 +20°C° 0 mm 3 m/s 721 mmHg 36%

    Poimâine, 23 August, Miercuri

    Timp Temperatura Precipitaţii Vânt Presiune Umiditate
    00:00 +19°C° 0 mm 3 m/s 721 mmHg 38%
    01:00 +19°C° 0 mm 3 m/s 721 mmHg 39%
    02:00 +18°C° 0 mm 3 m/s 721 mmHg 41%
    03:00 +17°C° 0 mm 3 m/s 721 mmHg 43%
    04:00 +17°C° 0 mm 3 m/s 721 mmHg 43%
    05:00 +16°C° 0 mm 3 m/s 721 mmHg 44%
    06:00 +16°C° 0 mm 3 m/s 721 mmHg 45%
    07:00 +17°C° 0 mm 4 m/s 722 mmHg 41%
    08:00 +18°C° 0 mm 4 m/s 722 mmHg 38%
    09:00 +20°C° 0 mm 4 m/s 723 mmHg 34%
    10:00 +21°C° 0 mm 4 m/s 723 mmHg 32%
    11:00 +23°C° 0 mm 4 m/s 722 mmHg 29%
    12:00 +25°C° 0 mm 3 m/s 722 mmHg 26%
    13:00 +26°C° 0 mm 3 m/s 722 mmHg 26%
    14:00 +26°C° 0 mm 4 m/s 721 mmHg 25%
    15:00 +27°C° 0 mm 4 m/s 720 mmHg 25%
    16:00 +26°C° 0 mm 3 m/s 721 mmHg 25%
    17:00 +25°C° 0 mm 3 m/s 721 mmHg 26%
    18:00 +25°C° 0 mm 3 m/s 721 mmHg 27%
    19:00 +24°C° 0 mm 3 m/s 722 mmHg 28%
    20:00 +24°C° 0 mm 3 m/s 722 mmHg 28%
    21:00 +22°C° 0 mm 3 m/s 723 mmHg 29%
    22:00 +22°C° 0 mm 4 m/s 723 mmHg 30%
    23:00 +21°C° 0 mm 4 m/s 723 mmHg 31%

    24 August, Joi

    Timp Temperatura Precipitaţii Vânt Presiune Umiditate
    00:00 +20°C° 0 mm 5 m/s 723 mmHg 32%
    01:00 +19°C° 0 mm 5 m/s 723 mmHg 35%
    02:00 +18°C° 0 mm 4 m/s 723 mmHg 37%
    03:00 +17°C° 0 mm 4 m/s 722 mmHg 40%
    04:00 +15°C° 0 mm 4 m/s 723 mmHg 41%
    05:00 +15°C° 0 mm 5 m/s 723 mmHg 42%
    06:00 +14°C° 0 mm 5 m/s 723 mmHg 43%
    07:00 +16°C° 0 mm 5 m/s 724 mmHg 39%
    08:00 +17°C° 0 mm 6 m/s 724 mmHg 36%
    09:00 +18°C° 0 mm 7 m/s 724 mmHg 32%
    10:00 +21°C° 0 mm 7 m/s 724 mmHg 29%
    11:00 +23°C° 0 mm 6 m/s 724 mmHg 26%
    12:00 +26°C° 0 mm 6 m/s 723 mmHg 23%
    13:00 +26°C° 0 mm 6 m/s 722 mmHg 22%
    14:00 +27°C° 0 mm 6 m/s 722 mmHg 20%
    15:00 +28°C° 0 mm 5 m/s 721 mmHg 19%
    16:00 +27°C° 0 mm 5 m/s 721 mmHg 20%
    17:00 +26°C° 0 mm 5 m/s 721 mmHg 21%
    18:00 +25°C° 0 mm 4 m/s 721 mmHg 22%
    19:00 +22°C° 0 mm 5 m/s 721 mmHg 23%
    20:00 +21°C° 0 mm 5 m/s 722 mmHg 24%
    21:00 +20°C° 0 mm 5 m/s 722 mmHg 25%
    22:00 +19°C° 0 mm 6 m/s 722 mmHg 25%
    23:00 +17°C° 0 mm 6 m/s 722 mmHg 26%

    25 August, Vineri

    Timp Temperatura Precipitaţii Vânt Presiune Umiditate
    00:00 +17°C° 0 mm 6 m/s 722 mmHg 26%
    01:00 +16°C° 0 mm 6 m/s 721 mmHg 27%
    02:00 +15°C° 0 mm 5 m/s 721 mmHg 28%
    03:00 +15°C° 0 mm 5 m/s 721 mmHg 29%
    04:00 +14°C° 0 mm 5 m/s 721 mmHg 31%
    05:00 +14°C° 0 mm 5 m/s 721 mmHg 32%
    06:00 +13°C° 0 mm 5 m/s 721 mmHg 33%
    07:00 +15°C° 0 mm 5 m/s 721 mmHg 31%
    08:00 +16°C° 0 mm 6 m/s 721 mmHg 29%
    09:00 +17°C° 0 mm 7 m/s 722 mmHg 26%
    10:00 +21°C° 0 mm 7 m/s 721 mmHg 24%
    11:00 +23°C° 0 mm 6 m/s 721 mmHg 21%
    12:00 +26°C° 0 mm 6 m/s 720 mmHg 18%
    13:00 +27°C° 0 mm 5 m/s 720 mmHg 18%
    14:00 +28°C° 0 mm 5 m/s 719 mmHg 18%
    15:00 +29°C° 0 mm 4 m/s 718 mmHg 17%
    16:00 +28°C° 0 mm 4 m/s 719 mmHg 18%
    17:00 +27°C° 0 mm 3 m/s 719 mmHg 20%
    18:00 +26°C° 0 mm 3 m/s 719 mmHg 21%
    19:00 +25°C° 0 mm 5 m/s 719 mmHg 22%
    20:00 +23°C° 0 mm 6 m/s 720 mmHg 23%
    21:00 +22°C° 0 mm 7 m/s 720 mmHg 24%
    22:00 +21°C° 0 mm 7 m/s 720 mmHg 26%
    23:00 +20°C° 0 mm 7 m/s 720 mmHg 28%

    26 August, Sâmbătă

    Timp Temperatura Precipitaţii Vânt Presiune Umiditate
    00:00 +19°C° 0 mm 6 m/s 720 mmHg 30%
    01:00 +19°C° 0 mm 6 m/s 720 mmHg 31%
    02:00 +17°C° 0 mm 6 m/s 721 mmHg 32%
    03:00 +17°C° 0 mm 5 m/s 721 mmHg 33%
    04:00 +16°C° 0 mm 6 m/s 721 mmHg 33%
    05:00 +15°C° 0 mm 7 m/s 721 mmHg 33%
    06:00 +15°C° 0 mm 8 m/s 721 mmHg 34%
    07:00 +15°C° 0 mm 8 m/s 722 mmHg 31%
    08:00 +16°C° 0 mm 8 m/s 722 mmHg 28%
    09:00 +17°C° 0 mm 8 m/s 723 mmHg 25%
    10:00 +20°C° 0 mm 8 m/s 722 mmHg 23%
    11:00 +21°C° 0 mm 8 m/s 722 mmHg 21%
    12:00 +23°C° 0 mm 7 m/s 722 mmHg 19%
    13:00 +24°C° 0 mm 6 m/s 721 mmHg 20%
    14:00 +25°C° 0 mm 5 m/s 721 mmHg 21%
    15:00 +25°C° 0 mm 4 m/s 720 mmHg 22%
    16:00 +23°C° 0,1 mm 4 m/s 720 mmHg 24%
    17:00 +23°C° 0,1 mm 4 m/s 721 mmHg 26%
    18:00 +22°C° 0,1 mm 4 m/s 721 mmHg 28%
    19:00 +21°C° 0 mm 5 m/s 721 mmHg 28%
    20:00 +21°C° 0 mm 6 m/s 722 mmHg 27%
    21:00 +20°C° 0 mm 7 m/s 722 mmHg 26%
    22:00 +18°C° 0 mm 7 m/s 722 mmHg 27%
    23:00 +17°C° 0 mm 7 m/s 722 mmHg 28%
    Arată mai mult